CW9346 Weather Reports


Display with metric or nautical units.
time (UTC)temp
F
wind
direction
speed
MPH
gust
MPH
rain 1hr
in
rain 24hr
in
rain mn
in
humidity
%
barometer
mb
20190617205330 81 82 0.0 0.0 0.00 0.00 0.00 82 1013.8
20190617204813 80 82 0.0 1.0 0.00 0.00 0.00 80 1013.8
20190617204329 80 82 0.0 1.0 0.00 0.00 0.00 80 1013.9
20190617203833 81 82 0.0 0.0 0.00 0.00 0.00 80 1013.8
20190617203321 78 82 0.0 1.0 0.00 0.00 0.00 85 1013.8
20190617202835 77 82 0.0 1.0 0.00 0.00 0.00 82 1013.8
20190617202325 78 82 0.0 3.0 0.00 0.00 0.00 80 1013.9
20190617201837 79 84 1.0 3.0 0.00 0.00 0.00 75 1014.1
20190617201326 84 88 0.0 5.0 0.00 0.00 0.00 66 1014.3
20190617200819 85 329 1.0 9.0 0.00 0.00 0.00 63 1014.5
20190617200335 85 22 0.0 3.0 0.00 0.00 0.00 64 1014.2
20190617195817 85 355 0.0 3.0 0.00 0.00 0.00 63 1014.2
20190617195320 85 55 0.0 1.0 0.00 0.00 0.00 66 1014.2
20190617194819 85 63 0.0 1.0 0.00 0.00 0.00 64 1014.2
20190617194333 86 63 0.0 0.0 0.00 0.00 0.00 62 1014.4
20190617193837 86 63 0.0 1.0 0.00 0.00 0.00 60 1014.4
20190617193326 87 63 0.0 1.0 0.00 0.00 0.00 61 1014.3
20190617192832 87 63 0.0 1.0 0.00 0.00 0.00 58 1014.4
20190617192318 89 63 0.0 1.0 0.00 0.00 0.00 54 1014.4
20190617191830 89 69 0.0 1.0 0.00 0.00 0.00 54 1014.4
20190617191338 89 69 0.0 2.0 0.00 0.00 0.00 55 1014.4
20190617190823 90 69 1.0 2.0 0.00 0.00 0.00 53 1014.5
20190617190336 87 79 0.0 1.0 0.00 0.00 0.00 59 1014.5
20190617185814 86 79 0.0 1.0 0.00 0.00 0.00 59 1014.5
20190617185318 86 79 0.0 1.0 0.00 0.00 0.00 60 1014.5
20190617184838 87 79 0.0 0.0 0.00 0.00 0.00 56 1014.5
20190617184325 87 79 0.0 1.0 0.00 0.00 0.00 57 1014.5
20190617183818 86 79 0.0 1.0 0.00 0.00 0.00 57 1014.7
20190617183333 86 80 0.0 1.0 0.00 0.00 0.00 58 1014.7
20190617182814 86 80 0.0 1.0 0.00 0.00 0.00 59 1014.7
20190617182330 86 80 0.0 0.0 0.00 0.00 0.00 59 1014.7
20190617181817 86 80 0.0 1.0 0.00 0.00 0.00 60 1014.8
20190617181333 86 79 0.0 1.0 0.00 0.00 0.00 60 1014.9
20190617180818 86 79 0.0 1.0 0.00 0.00 0.00 59 1014.8
20190617180333 86 79 0.0 0.0 0.00 0.00 0.00 57 1014.8
20190617175813 86 79 0.0 2.0 0.00 0.00 0.00 55 1014.9
20190617175328 86 9 0.0 1.0 0.00 0.00 0.00 55 1014.9
20190617174828 87 9 0.0 1.0 0.00 0.00 0.00 53 1014.8
20190617174316 87 360 0.0 1.0 0.00 0.00 0.00 59 1015.0
20190617173827 87 35 0.0 1.0 0.00 0.00 0.00 55 1015.0
20190617173315 87 270 0.0 2.0 0.00 0.00 0.00 54 1015.1
20190617172819 87 270 0.0 2.0 0.00 0.00 0.00 52 1015.1
20190617172326 88 308 0.0 2.0 0.00 0.00 0.00 55 1015.2
20190617171814 88 309 0.0 2.0 0.00 0.00 0.00 50 1015.3
20190617171328 89 312 0.0 3.0 0.00 0.00 0.00 52 1015.2
20190617170815 88 315 0.0 4.0 0.00 0.00 0.00 56 1015.2
20190617170320 88 297 0.0 4.0 0.00 0.00 0.00 50 1015.3
20190617165831 89 121 0.0 3.0 0.00 0.00 0.00 50 1015.3
20190617165321 88 21 1.0 6.0 0.00 0.00 0.00 53 1015.2
20190617164813 88 29 1.0 6.0 0.00 0.00 0.00 52 1015.3
20190617164328 88 316 1.0 3.0 0.00 0.00 0.00 52 1015.4
20190617163815 87 36 0.0 1.0 0.00 0.00 0.00 53 1015.2
20190617163330 86 37 0.0 1.0 0.00 0.00 0.00 56 1015.3
20190617162816 87 37 0.0 2.0 0.00 0.00 0.00 53 1015.3
20190617162331 87 37 0.0 2.0 0.00 0.00 0.00 54 1015.3
20190617161816 86 52 0.0 1.0 0.00 0.00 0.00 54 1015.4
20190617161333 86 42 0.0 1.0 0.00 0.00 0.00 59 1015.4
20190617160818 87 42 0.0 1.0 0.00 0.00 0.00 56 1015.3
20190617160335 86 42 0.0 1.0 0.00 0.00 0.00 56 1015.3
20190617155818 87 43 0.0 3.0 0.00 0.00 0.00 58 1015.2
20190617155335 87 40 1.0 3.0 0.00 0.00 0.00 59 1015.3
20190617154818 87 300 0.0 1.0 0.00 0.00 0.00 59 1015.3
20190617154334 87 300 0.0 1.0 0.00 0.00 0.00 55 1015.3
20190617153839 86 300 0.0 1.0 0.00 0.00 0.00 65 1015.1
20190617153327 85 300 0.0 1.0 0.00 0.00 0.00 61 1015.0
20190617152814 85 300 0.0 1.0 0.00 0.00 0.00 63 1015.0
20190617152329 84 300 0.0 2.0 0.00 0.00 0.00 61 1015.0
20190617151813 84 300 0.0 3.0 0.00 0.00 0.00 64 1015.0
20190617151329 83 302 0.0 3.0 0.00 0.00 0.00 61 1015.0
20190617150814 83 300 0.0 1.0 0.00 0.00 0.00 62 1015.0
20190617150332 84 300 0.0 1.0 0.00 0.00 0.00 64 1015.0
20190617145813 84 300 0.0 1.0 0.00 0.00 0.00 65 1015.0
20190617145325 83 298 0.0 1.0 0.00 0.00 0.00 64 1015.0
20190617144836 83 298 0.0 2.0 0.00 0.00 0.00 65 1015.0
20190617144325 82 295 0.0 2.0 0.00 0.00 0.00 64 1015.0
20190617143836 83 295 0.0 1.0 0.00 0.00 0.00 66 1015.0
20190617143325 82 295 0.0 0.0 0.00 0.00 0.00 67 1014.9
20190617142838 82 295 0.0 1.0 0.00 0.00 0.00 68 1015.0
20190617142327 82 295 0.0 1.0 0.00 0.00 0.00 66 1015.0
20190617141831 81 295 0.0 1.0 0.00 0.00 0.00 65 1015.0
20190617141337 81 295 0.0 1.0 0.00 0.00 0.00 72 1015.0
20190617140816 80 295 0.0 2.0 0.00 0.00 0.00 69 1015.0
20190617140332 80 295 0.0 2.0 0.00 0.00 0.00 70 1015.0
20190617135813 79 295 0.0 0.0 0.00 0.00 0.00 77 1015.0
20190617135329 78 295 0.0 0.0 0.00 0.00 0.00 79 1015.0
20190617134816 78 295 0.0 1.0 0.00 0.00 0.00 74 1015.0
20190617134331 78 295 0.0 1.0 0.00 0.00 0.00 71 1015.0
20190617133817 79 295 0.0 0.0 0.00 0.00 0.00 72 1014.9
20190617133334 79 295 0.0 1.0 0.00 0.00 0.00 73 1015.0
20190617132839 79 295 0.0 1.0 0.00 0.00 0.00 74 1014.9
20190617132338 78 295 0.0 1.0 0.00 0.00 0.00 73 1014.8
20190617131823 78 295 0.0 1.0 0.00 0.00 0.00 73 1014.9
20190617131339 77 295 0.0 1.0 0.00 0.00 0.00 74 1014.9
20190617130824 76 295 0.0 2.0 0.00 0.00 0.00 76 1014.8
20190617130314 75 295 0.0 4.0 0.00 0.00 0.00 80 1014.8
20190617125820 75 295 1.0 4.0 0.00 0.00 0.00 80 1014.7
20190617125337 75 295 0.0 1.0 0.00 0.00 0.00 81 1014.6
20190617124822 75 295 0.0 0.0 0.00 0.00 0.00 82 1014.7
20190617124327 75 295 0.0 0.0 0.00 0.00 0.00 83 1014.6
20190617123833 75 295 0.0 1.0 0.00 0.00 0.00 83 1014.6
20190617123324 74 295 0.0 1.0 0.00 0.00 0.00 83 1014.7
20190617122837 74 295 0.0 0.0 0.00 0.00 0.00 85 1014.8
20190617122327 74 295 0.0 1.0 0.00 0.00 0.00 85 1014.9
20190617121814 73 295 0.0 2.0 0.00 0.00 0.00 85 1015.0
20190617121329 73 295 0.0 1.0 0.00 0.00 0.00 86 1015.1
20190617120813 73 295 0.0 1.0 0.00 0.00 0.00 87 1015.0
20190617120331 73 295 0.0 1.0 0.00 0.00 0.00 87 1015.1
20190617115813 73 295 0.0 1.0 0.00 0.00 0.00 89 1015.2
20190617115328 72 295 0.0 1.0 0.00 0.00 0.00 89 1015.1
20190617114815 72 295 0.0 2.0 0.00 0.00 0.00 89 1015.2
20190617114330 72 295 0.0 2.0 0.00 0.00 0.00 89 1015.2
20190617113832 72 286 0.0 0.0 0.00 0.00 0.00 90 1015.0
20190617113320 71 286 0.0 0.0 0.00 0.00 0.00 90 1015.1
20190617112830 71 286 0.0 0.0 0.00 0.00 0.00 90 1015.1
20190617112319 71 286 0.0 0.0 0.00 0.00 0.00 89 1015.1
20190617111812 71 286 0.0 0.0 0.00 0.00 0.00 89 1015.1
20190617111319 71 286 0.0 0.0 0.00 0.00 0.00 89 1015.0
20190617110831 71 286 0.0 0.0 0.00 0.00 0.00 88 1014.8
20190617110320 71 286 0.0 0.0 0.00 0.00 0.00 88 1014.8
20190617105829 71 286 0.0 0.0 0.00 0.00 0.00 88 1014.8
20190617105337 71 286 0.0 0.0 0.00 0.00 0.00 88 1014.7
20190617104839 71 286 0.0 0.0 0.00 0.00 0.00 88 1014.7
20190617104324 71 286 0.0 0.0 0.00 0.00 0.00 88 1014.6
20190617103828 71 286 0.0 0.0 0.00 0.00 0.00 87 1014.5
20190617103337 71 286 0.0 0.0 0.00 0.00 0.00 87 1014.4
20190617102822 71 286 0.0 0.0 0.00 0.00 0.00 86 1014.3
20190617102317 71 286 0.0 0.0 0.00 0.00 0.00 85 1014.1
20190617101818 71 286 0.0 0.0 0.00 0.00 0.00 83 1014.0
20190617101334 72 286 0.0 0.0 0.00 0.00 0.00 84 1014.0
20190617100820 72 286 0.0 0.0 0.00 0.00 0.00 84 1014.1
20190617100335 72 286 0.0 0.0 0.00 0.00 0.00 83 1014.0
20190617095816 72 286 0.0 0.0 0.00 0.00 0.00 82 1014.0
20190617095330 72 286 0.0 0.0 0.00 0.00 0.00 82 1014.0
20190617094815 72 286 0.0 0.0 0.00 0.00 0.00 82 1014.0
20190617094325 73 286 0.0 0.0 0.00 0.00 0.00 82 1014.1
20190617093837 73 286 0.0 0.0 0.00 0.00 0.00 82 1014.0
20190617093324 73 286 0.0 0.0 0.00 0.00 0.00 81 1013.7
20190617092835 73 286 0.0 0.0 0.00 0.00 0.00 81 1013.7
20190617092324 73 286 0.0 0.0 0.00 0.00 0.00 81 1013.7
20190617091817 74 286 0.0 0.0 0.00 0.00 0.00 80 1013.5
20190617091333 74 286 0.0 0.0 0.00 0.00 0.00 81 1013.5
20190617090818 74 286 0.0 0.0 0.00 0.00 0.00 81 1013.5
20190617090333 74 286 0.0 0.0 0.00 0.00 0.00 80 1013.4
20190617085835 75 286 0.0 0.0 0.00 0.00 0.00 80 1013.1
20190617085316 75 286 0.0 0.0 0.00 0.00 0.00 79 1012.7
20190617084821 75 286 0.0 0.0 0.00 0.00 0.00 79 1012.4
20190617084335 75 286 0.0 0.0 0.00 0.00 0.00 79 1012.4
20190617083819 75 286 0.0 0.0 0.00 0.00 0.00 79 1012.5
20190617083329 76 286 0.0 0.0 0.00 0.00 0.00 79 1012.7
20190617082815 76 286 0.0 0.0 0.00 0.00 0.00 79 1012.6
20190617082330 76 286 0.0 0.0 0.00 0.00 0.00 79 1012.7
20190617081818 76 286 0.0 0.0 0.00 0.00 0.00 79 1012.5
20190617081314 76 286 0.0 1.0 0.00 0.00 0.00 80 1012.5
20190617080818 76 286 0.0 1.0 0.00 0.00 0.00 80 1012.6
20190617080333 77 286 0.0 0.0 0.00 0.00 0.00 80 1012.5
20190617075814 77 286 0.0 0.0 0.00 0.00 0.00 80 1012.6
20190617075323 77 286 0.0 0.0 0.00 0.00 0.00 80 1012.6
20190617074835 77 286 0.0 0.0 0.00 0.00 0.00 80 1012.6
20190617074321 77 286 0.0 1.0 0.00 0.00 0.00 79 1013.0
20190617073813 77 286 0.0 1.0 0.00 0.00 0.00 79 1013.0
20190617073327 77 286 0.0 1.0 0.00 0.00 0.00 79 1012.7
20190617072821 77 286 0.0 3.0 0.00 0.00 0.00 79 1012.7
20190617072332 77 286 0.0 3.0 0.00 0.00 0.00 79 1012.6
20190617071816 77 314 0.0 2.0 0.00 0.00 0.00 78 1012.4
20190617071329 77 314 0.0 1.0 0.00 0.00 0.00 78 1012.0
20190617070817 77 24 0.0 1.0 0.00 0.00 0.00 78 1011.8
20190617070329 77 319 0.0 1.0 0.00 0.00 0.00 78 1011.9
20190617065832 77 317 0.0 1.0 0.00 0.00 0.00 78 1011.9
20190617065341 77 316 0.0 1.0 0.00 0.00 0.00 77 1011.8
20190617064819 77 319 0.0 1.0 0.00 0.00 0.00 78 1011.7
20190617064334 77 318 0.0 1.0 0.00 0.00 0.00 77 1011.8
20190617063820 77 320 0.0 1.0 0.00 0.00 0.00 77 1011.8
20190617063336 77 320 0.0 1.0 0.00 0.00 0.00 77 1011.8
20190617062821 77 224 0.0 0.0 0.00 0.00 0.00 77 1011.8
20190617062333 78 224 0.0 2.0 0.00 0.00 0.00 77 1011.8
20190617061813 78 224 0.0 2.0 0.00 0.00 0.00 77 1011.8
20190617061338 78 5 0.0 3.0 0.00 0.00 0.00 77 1011.9
20190617060820 78 5 0.0 4.0 0.00 0.00 0.00 77 1011.9
20190617060314 78 163 1.0 4.0 0.00 0.00 0.00 77 1012.0
20190617055820 78 72 0.0 1.0 0.00 0.00 0.00 77 1012.1
20190617055334 78 70 0.0 2.0 0.00 0.00 0.00 77 1012.1
20190617054838 78 177 0.0 2.0 0.00 0.00 0.00 77 1012.1
20190617054325 78 165 0.0 1.0 0.00 0.00 0.00 77 1012.1
20190617053818 78 165 0.0 1.0 0.00 0.00 0.00 76 1012.2
20190617053333 78 164 0.0 1.0 0.00 0.00 0.00 76 1012.1
20190617052818 78 175 0.0 1.0 0.00 0.00 0.00 76 1012.1
20190617052314 78 175 0.0 1.0 0.00 0.00 0.00 76 1012.0
20190617051837 78 174 0.0 1.0 0.00 0.00 0.00 76 1012.1
20190617051326 78 172 0.0 1.0 0.00 0.00 0.00 76 1012.1
20190617050831 79 172 0.0 1.0 0.00 0.00 0.00 75 1012.0
20190617050319 79 163 0.0 2.0 0.00 0.00 0.00 75 1012.0
20190617045830 79 160 0.0 2.0 0.00 0.00 0.00 75 1012.1
20190617045337 79 166 0.0 2.0 0.00 0.00 0.00 75 1012.0
20190617044822 79 134 0.0 1.0 0.00 0.00 0.00 74 1011.9
20190617044328 79 130 0.0 2.0 0.00 0.00 0.00 74 1012.0
20190617043814 79 130 0.0 2.0 0.00 0.00 0.00 74 1012.0
20190617043330 79 135 0.0 1.0 0.00 0.00 0.00 74 1011.9
20190617042815 79 133 0.0 1.0 0.00 0.00 0.00 74 1011.8
20190617042332 79 102 0.0 1.0 0.00 0.00 0.00 74 1011.8
20190617041820 79 96 0.0 2.0 0.00 0.00 0.00 74 1011.9
20190617041334 79 87 0.0 2.0 0.00 0.00 0.00 74 1011.9
20190617040834 79 108 0.0 1.0 0.00 0.00 0.00 74 1011.9
20190617040315 79 56 0.0 1.0 0.00 0.00 0.00 74 1011.8
20190617035818 80 34 0.0 2.0 0.00 0.00 0.00 74 1011.8
20190617035326 80 128 0.0 2.0 0.00 0.00 0.00 73 1012.0
20190617034817 80 148 0.0 2.0 0.00 0.00 0.00 74 1011.9
20190617034332 80 202 0.0 2.0 0.00 0.00 0.00 73 1011.9
20190617033818 80 292 0.0 4.0 0.00 0.00 0.00 73 1011.8
20190617033334 80 158 1.0 4.0 0.00 0.00 0.00 73 1011.8
20190617032819 80 128 0.0 4.0 0.00 0.00 0.00 73 1011.8
20190617032333 80 150 0.0 4.0 0.00 0.00 0.00 73 1011.7
20190617031838 80 52 0.0 1.0 0.00 0.00 0.00 73 1011.7
20190617031329 80 348 0.0 2.0 0.00 0.00 0.00 73 1011.7
20190617030815 80 96 0.0 2.0 0.00 0.00 0.00 73 1011.6
20190617030330 80 134 0.0 2.0 0.00 0.00 0.00 73 1011.6
20190617025831 80 184 0.0 2.0 0.00 0.00 0.00 73 1011.4
20190617025338 80 254 0.0 4.0 0.00 0.00 0.00 73 1011.3
20190617024821 80 257 0.0 4.0 0.00 0.00 0.00 73 1011.4
20190617024337 80 121 0.0 4.0 0.00 0.00 0.00 73 1011.5
20190617023821 80 145 0.0 4.0 0.00 0.00 0.00 73 1011.4
20190617023337 80 271 0.0 1.0 0.00 0.00 0.00 73 1011.3
20190617022822 80 54 0.0 1.0 0.00 0.00 0.00 73 1011.3
20190617022337 81 125 0.0 2.0 0.00 0.00 0.00 73 1011.2
20190617021822 81 102 0.0 2.0 0.00 0.00 0.00 73 1011.3
20190617021317 81 259 0.0 2.0 0.00 0.00 0.00 73 1011.3
20190617020813 81 342 0.0 2.0 0.00 0.00 0.00 72 1011.1
20190617020328 81 342 0.0 2.0 0.00 0.00 0.00 72 1011.0
20190617015815 81 272 0.0 1.0 0.00 0.00 0.00 72 1011.0
20190617015329 81 273 0.0 1.0 0.00 0.00 0.00 72 1010.8
20190617014840 81 334 0.0 1.0 0.00 0.00 0.00 72 1010.7
20190617014327 81 302 0.0 1.0 0.00 0.00 0.00 72 1010.7
20190617013822 81 273 0.0 1.0 0.00 0.00 0.00 72 1010.6
20190617013336 81 167 0.0 1.0 0.00 0.00 0.00 72 1010.6
20190617012820 81 181 0.0 2.0 0.00 0.00 0.00 72 1010.6
20190617012335 81 181 0.0 2.0 0.00 0.00 0.00 71 1010.6
20190617011821 82 95 0.0 2.0 0.00 0.00 0.00 72 1010.5
20190617011335 82 53 0.0 1.0 0.00 0.00 0.00 71 1010.5
20190617010821 82 53 0.0 1.0 0.00 0.00 0.00 71 1010.5
20190617010331 82 52 0.0 1.0 0.00 0.00 0.00 71 1010.4
20190617005814 82 48 0.0 1.0 0.00 0.00 0.00 70 1010.4
20190617005327 82 52 0.0 0.0 0.00 0.00 0.00 70 1010.4
20190617004825 82 52 0.0 0.0 0.00 0.00 0.00 70 1010.4
20190617004328 83 52 0.0 2.0 0.00 0.00 0.00 69 1010.5
20190617003815 83 74 0.0 1.0 0.00 0.00 0.00 69 1010.5
20190617003327 83 74 0.0 1.0 0.00 0.00 0.00 68 1010.5
20190617002813 83 74 0.0 1.0 0.00 0.00 0.00 68 1010.6
20190617002323 83 74 0.0 0.0 0.00 0.00 0.00 68 1010.6
20190617001835 83 74 0.0 1.0 0.00 0.00 0.00 67 1010.5
20190617001324 84 74 0.0 1.0 0.00 0.00 0.00 67 1010.4
20190617000837 84 76 0.0 1.0 0.00 0.00 0.00 67 1010.4
20190617000326 84 76 0.0 1.0 0.00 0.00 0.00 67 1010.5
20190616235813 84 5 0.0 1.0 0.00 0.00 0.00 66 1010.5
20190616235328 84 5 0.0 1.0 0.00 0.00 0.00 66 1010.4
20190616234814 84 19 0.0 1.0 0.00 0.00 0.00 66 1010.4
20190616234331 84 20 0.0 1.0 0.00 0.00 0.00 66 1010.3
20190616233815 84 30 0.0 1.0 0.00 0.00 0.00 66 1010.4
20190616233330 85 30 0.0 1.0 0.00 0.00 0.00 65 1010.3
20190616232836 85 207 0.0 1.0 0.00 0.00 0.00 65 1010.4
20190616232330 85 123 0.0 2.0 0.00 0.00 0.00 65 1010.4
20190616231818 85 148 0.0 2.0 0.00 0.00 0.00 65 1010.4
20190616231334 85 70 0.0 4.0 0.00 0.00 0.00 65 1010.3
20190616230820 85 52 0.0 4.0 0.00 0.00 0.00 65 1010.3
20190616230336 85 123 0.0 1.0 0.00 0.00 0.00 66 1010.2
20190616225820 85 123 0.0 3.0 0.00 0.00 0.00 66 1010.1
20190616225336 85 319 0.0 3.0 0.00 0.00 0.00 65 1010.0
20190616224821 85 99 0.0 3.0 0.00 0.00 0.00 65 1010.0
20190616224337 85 121 0.0 3.0 0.00 0.00 0.00 65 1010.0
20190616223822 85 5 0.0 2.0 0.00 0.00 0.00 65 1010.1
20190616223337 85 65 0.0 2.0 0.00 0.00 0.00 64 1010.0
20190616222822 85 278 0.0 3.0 0.00 0.00 0.00 64 1009.8
20190616222323 85 98 0.0 3.0 0.00 0.00 0.00 65 1009.9
20190616221835 85 130 0.0 3.0 0.00 0.00 0.00 66 1010.0
20190616221323 85 174 0.0 4.0 0.00 0.00 0.00 65 1010.0
20190616220829 84 101 0.0 4.0 0.00 0.00 0.00 66 1010.0
20190616220317 84 217 1.0 2.0 0.00 0.00 0.00 65 1010.0
20190616215817 84 95 0.0 2.0 0.00 0.00 0.00 66 1010.1
20190616215333 84 69 0.0 2.0 0.00 0.00 0.00 65 1010.1
20190616214819 84 30 0.0 2.0 0.00 0.00 0.00 66 1010.1
20190616214333 84 25 0.0 2.0 0.00 0.00 0.00 67 1010.1
20190616213838 84 31 0.0 2.0 0.00 0.00 0.00 66 1010.2
20190616213326 84 48 0.0 1.0 0.00 0.00 0.00 67 1010.3
20190616212830 84 276 0.0 1.0 0.00 0.00 0.00 66 1010.5
20190616212318 84 282 0.0 2.0 0.00 0.00 0.00 66 1010.4
20190616211839 84 287 0.0 3.0 0.00 0.00 0.00 66 1010.4
20190616211329 84 355 0.0 4.0 0.00 0.00 0.00 66 1010.6
20190616210813 84 272 0.0 2.0 0.00 0.00 0.00 66 1010.5
20190616210338 84 113 0.0 2.0 0.00 0.00 0.00 67 1010.4
20190616205821 84 74 0.0 2.0 0.00 0.00 0.00 65 1010.5